Le nostre stazioni meteo in Italia

Pubblicità
Il mio iltempo24.it
S. Valentino Alla Muta, Italia (16008): Temperatura & dewpoint: 07.12.2018 22:00:00 - 13.12.2018 22:00:00 (CET)S. Valentino Alla Muta, Italia (16008): velocità del vento: 07.12.2018 22:00:00 - 13.12.2018 22:00:00 (CET)S. Valentino Alla Muta, Italia (16008): direzione del vento: 07.12.2018 22:00:00 - 13.12.2018 22:00:00 (CET)S. Valentino Alla Muta, Italia (16008): visibility: 07.12.2018 22:00:00 - 13.12.2018 22:00:00 (CET)
Data & Tempo tt [°C] td [°C] ff [km/h] ff [kn] dd vv [km]
13.12.2018 22:00:00 -10,8 -14,2 0 0 N 12
13.12.2018 21:00:00 -10,8 -14,4 0 0 N 12
13.12.2018 20:00:00 -10,4 -14,3 5 3 NNE 12
13.12.2018 19:00:00 -10,0 -13,9 8 4 NNE 12
13.12.2018 18:00:00 -9,8 -14,8 0 0 N 12
13.12.2018 17:00:00 -8,6 -14,6 0 0 N 20
13.12.2018 16:00:00 -6,4 -14,2 0 0 N 20
13.12.2018 15:00:00 -4,6 -15,8 5 3 SO 20
13.12.2018 14:00:00 -4,4 -18,3 9 5 S 20
13.12.2018 13:00:00 -2,4 -18,9 11 6 S 20
13.12.2018 12:00:00 -2,8 -16,8 0 0 N 20
13.12.2018 11:00:00 -4,8 -16,6 0 0 N 20
13.12.2018 10:00:00 -10,8 -13,9 0 0 N 20
13.12.2018 09:00:00 -13,2 -15,5 0 0 N 20
13.12.2018 08:00:00 -13,0 -15,7 0 0 N 15
13.12.2018 07:00:00 -12,8 -15,5 0 0 N 15
13.12.2018 06:00:00 -12,4 -15,1 4 2 ENE 10
13.12.2018 05:00:00 -11,6 -14,0 4 2 NE 10
13.12.2018 04:00:00 -11,6 -14,0 4 2 NNE 10
13.12.2018 03:00:00 -11,4 -14,1 11 6 NNE 10
13.12.2018 02:00:00 -11,4 -14,1 9 5 NNE 10
13.12.2018 01:00:00 -11,4 -14,6 9 5 NNE 10
13.12.2018 00:00:00 -11,2 -14,4 9 5 NNE 12
12.12.2018 23:00:00 -10,8 -13,9 11 6 NNE 12
12.12.2018 22:00:00 -10,2 -13,3 9 5 NNE 10
12.12.2018 21:00:00 -9,8 -13,1 11 6 N 12
12.12.2018 20:00:00 -9,0 -12,8 8 4 NNE 12
12.12.2018 19:00:00 -8,4 -12,4 11 6 N 10
12.12.2018 18:00:00 -8,2 -12,2 9 5 N 15
12.12.2018 17:00:00 -7,4 -12,5 9 5 N 15
12.12.2018 16:00:00 -5,6 -12,1 9 5 N 18
12.12.2018 15:00:00 -3,4 -15,4 13 7 N 20
12.12.2018 14:00:00 -3,2 -14,9 16 9 NNE 20
12.12.2018 13:00:00 -3,8 -14,6 15 8 N 20
12.12.2018 12:00:00 -4,0 -14,2 15 8 N 20
12.12.2018 11:00:00 -5,2 -14,0 15 8 NNE 20
12.12.2018 10:00:00 -8,6 -14,4 16 9 NNE 15
12.12.2018 09:00:00 -10,4 -14,3 9 5 NNE 20
12.12.2018 08:00:00 -10,4 -14,1 9 5 NNE 20
12.12.2018 07:00:00 -10,2 -14,3 9 5 NNE 10
12.12.2018 06:00:00 -10,0 -13,1 9 5 NNE 10
12.12.2018 05:00:00 -10,0 -13,1 9 5 NNE 10
12.12.2018 04:00:00 -9,4 -12,4 5 3 N 10
12.12.2018 03:00:00 -9,4 -12,4 8 4 N 10
12.12.2018 02:00:00 -9,0 -10,5 8 4 NNE 10
12.12.2018 01:00:00 -9,0 -10,5 5 3 NNE 10
12.12.2018 00:00:00 -8,6 -11,6 8 4 N 15
11.12.2018 23:00:00 -7,6 -10,9 8 4 N 15
11.12.2018 22:00:00 -7,2 -10,7 5 3 NNE 10
11.12.2018 21:00:00 -6,8 -10,3 8 4 N 10
11.12.2018 20:00:00 -6,6 -10,1 5 3 N 10
11.12.2018 19:00:00 -6,2 -10,6 8 4 NNE 10
11.12.2018 18:00:00 -5,8 -11,9 5 3 NNE 10
11.12.2018 17:00:00 -5,0 -12,4 9 5 N 20
11.12.2018 16:00:00 -3,8 -13,5 11 6 NNO 20
11.12.2018 15:00:00 -3,4 -13,6 13 7 NNO 20
11.12.2018 14:00:00 -2,4 -13,8 9 5 N 20
11.12.2018 13:00:00 -1,2 -13,1 15 8 N 20
11.12.2018 12:00:00 -0,8 -12,7 13 7 N 20
11.12.2018 11:00:00 -1,6 -10,7 15 8 NNE 20
11.12.2018 10:00:00 -3,4 -10,0 9 5 NNE 10
11.12.2018 09:00:00 -5,4 -9,3 8 4 NE 9
11.12.2018 08:00:00 -5,2 -10,4 5 3 ENE 9
11.12.2018 07:00:00 -4,6 -11,6 9 5 NNE 7
11.12.2018 06:00:00 -4,2 -5,7 16 9 NNO 1,8
11.12.2018 05:00:00 -4,2 -5,9 18 10 NNO 0,9
11.12.2018 04:00:00 -3,8 -6,3 9 5 NNE 0,9
11.12.2018 03:00:00 -3,8 -6,3 13 7 N 0,9
11.12.2018 02:00:00 -3,6 -4,3 11 6 NNE 0,5
11.12.2018 01:00:00 -3,4 -4,1 13 7 N 1,0
11.12.2018 00:00:00 -3,2 -4,6 9 5 NNO 1,5
10.12.2018 23:00:00 -3,2 -4,0 8 4 N 2,0
10.12.2018 22:00:00 -3,2 -4,0 11 6 NNE 0,9
10.12.2018 21:00:00 -3,2 -3,7 8 4 NNE 0,5
10.12.2018 20:00:00 -3,2 -3,7 8 4 NNE 0,9
10.12.2018 19:00:00 -3,0 -3,8 5 3 NNE 0,9
10.12.2018 18:00:00 -2,6 -4,8 9 5 NE 2,8
10.12.2018 17:00:00 -2,2 -5,2 13 7 NNE 2,8
10.12.2018 16:00:00 -1,8 -5,6 15 8 N 4,5
10.12.2018 15:00:00 -1,6 -4,8 13 7 NNE 4,5
10.12.2018 14:00:00 -1,6 -5,1 13 7 NNE 1,2
10.12.2018 13:00:00 -1,4 -4,7 15 8 N 1,0
10.12.2018 12:00:00 -1,0 -5,8 13 7 N 1,6
10.12.2018 11:00:00 -1,4 -4,9 15 8 NNE 2,5
10.12.2018 10:00:00 -2,0 -5,0 16 9 NNE 1,6
10.12.2018 09:00:00 -2,2 -6,7 13 7 N 0,9
10.12.2018 08:00:00 -2,2 -8,1 13 7 N 6
10.12.2018 07:00:00 -2,4 -7,3 15 8 N 4,0
10.12.2018 06:00:00 -2,0 -3,9 16 9 NNE 0,9
10.12.2018 05:00:00 -1,6 -4,0 11 6 NNE 0,9
10.12.2018 04:00:00 -1,6 -4,1 15 8 N 0,9
10.12.2018 03:00:00 -1,0 -2,7 9 5 NNE 0,9
10.12.2018 02:00:00 -1,0 -1,1 8 4 NNE 0,6
10.12.2018 01:00:00 -1,0 -2,7 5 3 NNE 0,6
10.12.2018 00:00:00 -1,0 -1,1 8 4 NNE 0,6
09.12.2018 23:00:00 -0,8 -0,9 9 5 NE 0,6
09.12.2018 22:00:00 -1,0 -1,1 4 2 NNE 0,6
09.12.2018 21:00:00 -1,0 -1,1 4 2 N 0,6
09.12.2018 20:00:00 -0,8 -1,2 4 2 N 0,6
09.12.2018 19:00:00 -0,8 -1,4 2 1 N 0,6
09.12.2018 18:00:00 -0,8 -1,5 5 3 SSO 0,6
09.12.2018 17:00:00 -0,4 -2,1 4 2 N 0,9
09.12.2018 16:00:00 0,2 -3,5 2 1 - 2,0
09.12.2018 15:00:00 0,6 -5,0 8 4 O 4,0
09.12.2018 14:00:00 1,6 -6,5 5 3 NNE 10
09.12.2018 13:00:00 1,8 -4,3 5 3 NNE 6
09.12.2018 12:00:00 1,8 -5,8 11 6 NNE 10
09.12.2018 11:00:00 -0,2 -0,9 9 5 NNE 0,9
09.12.2018 10:00:00 -2,0 -2,1 5 3 ENE 0,6
09.12.2018 09:00:00 -1,8 -2,5 4 2 NNE 0,9
09.12.2018 08:00:00 -1,0 -2,4 4 2 E 0,7
09.12.2018 07:00:00 -1,0 -6,4 8 4 NNO 10
09.12.2018 06:00:00 -1,4 -6,2 5 3 SE 10
09.12.2018 05:00:00 -1,0 -6,2 4 2 S 10
09.12.2018 04:00:00 0,6 -5,4 8 4 S 10
09.12.2018 03:00:00 0,4 -5,0 8 4 S 10
09.12.2018 02:00:00 -0,2 -3,6 8 4 NNE 10
09.12.2018 01:00:00 -0,2 -3,6 11 6 N 10
09.12.2018 00:00:00 -0,2 -5,0 8 4 NNE 10
08.12.2018 23:00:00 0,4 -4,8 8 4 N 10
08.12.2018 22:00:00 0,8 -5,4 4 2 NE 10
08.12.2018 21:00:00 1,0 -6,3 5 3 NE 10
08.12.2018 20:00:00 1,0 -6,6 4 2 NNO 10
08.12.2018 19:00:00 0,8 -7,7 4 2 ENE 10
08.12.2018 18:00:00 1,0 -8,8 8 4 NE 12
08.12.2018 17:00:00 2,4 -10,5 8 4 ENE 12
08.12.2018 16:00:00 3,2 -13,1 4 2 N 12
08.12.2018 15:00:00 3,4 -13,8 8 4 NNO 12
08.12.2018 14:00:00 4,6 -13,7 13 7 NNO 15
08.12.2018 13:00:00 3,8 -13,0 13 7 N 15
08.12.2018 12:00:00 3,6 -10,4 21 11 NNO 12
08.12.2018 11:00:00 3,2 -12,7 13 7 N 15
08.12.2018 10:00:00 1,4 -9,8 15 8 NNE 12
08.12.2018 09:00:00 -1,8 -9,4 5 3 NNE 20
08.12.2018 08:00:00 -1,6 -9,5 5 3 NNE 20
08.12.2018 07:00:00 -1,4 -11,8 11 6 N 10
08.12.2018 06:00:00 -0,8 -8,0 11 6 N 10
08.12.2018 05:00:00 -0,8 -7,4 8 4 N 10
08.12.2018 04:00:00 -0,4 -3,8 18 10 N 6
08.12.2018 03:00:00 -0,4 -3,1 13 7 N 10
08.12.2018 02:00:00 -1,0 -2,0 2 1 - 10
08.12.2018 01:00:00 -1,0 -2,0 2 1 N 10
08.12.2018 00:00:00 -0,8 -1,5 4 2 N 10
07.12.2018 23:00:00 -0,8 -1,5 4 2 N 10
07.12.2018 22:00:00 -0,6 -2,0 8 4 SSO 10

tt = Temperatura
td = dewpoint
ff = velocità del vento
dd = direzione del vento
vv = visibility

Stazioni seguenti

WeatherPro
AMSI
MeteoEarth